GFSNW_850_rhum_210.txt.gz
RH
12 8 5 4 3 3 14 56 64 66 58 77 46 58 54 56 49 47 46 44 42 42 40 41 36 31 44 40 42 48 49 53 66 47 40 37 40 43 39 80 72 84 87 70
17 12 7 4 6 7 14 67 60 58 53 66 61 54 50 55 50 48 46 49 45 48 49 50 37 40 43 44 46 54 48 56 76 53 56 52 50 41 42 47 52 72 85 67
18 19 11 10 10 9 21 74 65 61 61 59 54 50 48 52 56 54 51 52 48 50 48 42 47 41 46 45 46 50 52 54 60 66 52 47 56 50 47 50 68 61 56 51
16 18 18 23 13 11 26 67 62 71 62 59 56 53 52 53 51 52 52 55 59 63 68 57 55 60 57 47 46 49 56 72 62 54 50 52 56 57 54 61 55 67 50 48
22 27 36 33 19 15 44 82 68 64 56 48 51 56 45 54 53 52 55 67 67 60 75 62 76 66 70 67 47 51 50 75 69 76 56 53 58 48 47 48 48 48 46 46
29 32 33 36 30 18 78 58 55 70 49 40 50 51 59 71 62 67 73 73 65 59 51 52 58 57 59 60 65 63 62 71 74 82 56 60 63 42 37 37 36 40 52 39
31 46 52 51 47 35 62 79 75 63 46 44 37 40 55 57 55 59 50 48 48 41 44 47 44 44 43 45 52 57 66 64 71 93 72 84 37 29 35 38 32 35 35 34
45 67 66 64 54 46 35 51 66 65 60 44 46 45 45 44 42 44 45 47 50 53 54 56 50 38 41 36 35 41 47 62 75 87 78 52 38 35 39 42 48 42 42 40
48 79 78 72 58 49 53 65 71 75 80 59 56 53 54 61 57 49 44 51 53 60 62 59 58 48 39 40 66 57 59 50 60 64 70 63 44 40 37 36 56 46 44 46
38 81 82 68 54 44 65 94 76 80 88 76 71 62 66 59 58 62 50 51 52 52 57 58 58 58 38 49 46 82 77 73 79 65 68 56 47 41 38 51 69 45 46 47
70 83 68 49 52 55 70 91 86 88 96 86 77 74 76 74 67 72 52 55 52 57 66 62 54 62 66 71 51 60 61 83 86 80 87 87 43 43 58 52 46 48 49 47
81 60 70 78 72 78 85 92 92 97 97 76 72 61 65 83 82 83 72 56 62 53 80 88 93 79 70 69 82 41 66 55 86 97 64 46 43 44 43 39 41 49 50 48
77 80 70 74 62 72 73 83 85 64 72 59 62 64 64 63 51 66 84 69 64 64 66 84 82 76 62 79 62 51 40 34 66 76 56 48 39 36 35 33 38 46 43 42
73 64 51 41 29 28 30 29 33 49 58 84 55 45 46 51 47 73 83 71 53 78 78 76 92 86 53 68 59 61 52 48 49 46 38 33 31 29 31 35 35 36 34 36
53 48 34 28 24 17 16 22 34 65 55 83 63 49 68 58 45 51 63 80 84 80 69 80 88 62 66 56 57 61 47 50 56 56 39 38 36 36 37 37 37 37 40 39
44 30 27 17 15 19 29 87 60 47 51 85 95 64 42 41 56 62 59 60 67 62 69 69 69 62 60 88 81 40 37 40 40 40 38 37 38 38 37 39 40 40 39 42
36 25 18 19 23 39 69 77 73 69 67 89 84 76 65 48 61 62 65 78 76 76 82 86 77 68 62 95 84 53 52 54 56 52 46 46 45 46 46 47 46 46 46 45
27 26 24 26 38 58 73 85 82 86 79 92 95 85 66 57 54 58 68 74 82 95 84 80 72 65 87 97 61 58 72 70 64 59 60 66 62 62 61 56 57 55 52 52
29 24 27 37 46 87 90 84 77 76 86 86 83 91 90 56 61 69 77 79 92 76 97 83 68 88 96 74 79 84 84 83 83 82 82 81 79 80 83 79 75 71 65 57
25 29 33 79 73 70 64 75 81 93 84 86 90 67 90 69 75 81 82 78 95 97 88 68 96 82 82 86 84 82 83 85 86 90 90 90 91 90 86 87 86 85 74 70
32 31 52 74 61 60 90 90 85 81 94 88 80 81 91 71 91 92 79 96 93 98 92 94 96 95 89 85 87 91 94 96 97 99 97 94 99 100 100 94 92 91 88 78
29 38 61 71 88 86 84 94 80 86 90 84 95 80 76 78 81 98 79 96 94 96 90 98 96 94 90 93 96 96 97 100 97 95 96 95 97 98 100 100 97 88 92 80
35 45 64 78 91 92 91 100 94 96 91 90 88 81 78 84 92 97 96 99 94 57 90 96 96 92 94 98 100 95 95 97 95 96 97 97 96 94 99 97 95 96 91 76
36 54 78 88 99 94 88 94 97 93 86 84 83 83 84 86 94 82 98 89 85 98 96 96 96 98 97 94 99 100 98 98 97 100 96 96 96 96 96 98 98 100 97 96
43 52 81 98 76 88 86 89 82 94 87 94 89 87 91 87 97 95 96 97 96 96 95 96 98 96 95 96 98 98 96 96 97 96 96 96 96 96 96 97 99 98 95 84
46 64 88 86 90 92 93 89 94 96 99 91 95 83 98 96 96 96 96 96 96 97 97 97 96 93 95 96 96 97 96 95 96 96 96 96 96 96 96 96 96 98 98 98
72 93 88 85 90 86 85 90 95 91 88 93 88 100 91 87 97 96 98 96 96 97 96 95 96 97 95 96 96 96 95 95 96 95 96 96 96 96 95 95 96 96 96 96

GFSNW_850_rhum_216.txt.gz
RH
90 86 44 4 5 4 4 11 27 39 21 57 69 72 55 54 55 51 52 49 53 55 55 57 46 44 51 44 46 53 52 65 81 63 45 45 61 60 67 84 71 89 93 79
90 93 71 5 5 4 3 21 38 51 45 69 78 59 54 55 53 57 57 58 57 53 59 63 55 47 48 48 48 54 52 62 86 54 58 51 53 48 48 55 68 76 85 60
99 96 84 9 4 4 4 23 45 55 56 60 64 65 59 57 53 57 57 58 58 63 66 57 61 59 62 56 51 54 52 70 66 64 48 65 70 62 61 62 76 72 66 56
98 98 87 13 4 4 6 34 65 68 46 68 64 58 62 61 58 56 51 69 69 69 75 71 67 73 70 58 52 57 62 86 78 75 72 71 73 74 68 71 67 79 64 62
98 100 89 18 5 5 8 40 48 67 60 56 55 60 64 65 69 65 64 74 72 63 72 72 80 70 70 75 67 66 68 85 83 88 75 73 74 66 64 64 61 61 59 61
99 100 97 27 5 6 12 25 43 27 36 52 60 63 65 74 62 68 72 70 61 71 66 54 51 50 52 56 72 78 78 80 85 86 78 58 51 53 51 50 53 61 67 56
100 100 98 31 7 10 12 17 32 42 28 57 54 51 61 71 66 63 65 51 49 47 50 47 43 52 58 56 55 57 79 75 80 95 78 90 40 42 45 62 60 62 60 62
100 100 96 43 12 20 17 25 32 33 56 56 53 47 49 50 51 52 48 46 46 49 50 67 62 52 42 46 56 60 60 78 89 100 96 70 50 49 52 55 63 61 61 58
100 100 96 42 21 40 27 21 29 32 46 54 60 55 55 66 67 60 52 53 53 53 69 73 74 62 46 46 62 64 61 72 82 90 94 90 47 49 50 51 78 82 61 50
100 100 87 53 45 51 32 28 32 44 50 59 69 64 65 61 66 72 66 62 52 57 65 65 70 70 64 66 73 83 84 86 92 88 90 80 60 58 51 69 94 72 62 45
100 100 92 88 78 64 43 43 46 56 71 75 77 78 73 72 69 78 63 61 64 66 73 75 86 92 91 84 70 64 77 92 95 90 95 91 76 68 85 60 59 72 67 53
100 98 98 94 91 76 48 71 86 86 80 73 71 65 62 77 85 80 78 70 72 68 91 98 93 87 86 79 81 57 58 64 66 80 85 49 45 52 55 48 56 46 41 40
99 99 98 98 81 85 60 75 84 80 77 43 44 62 49 47 52 65 86 79 76 69 67 83 88 97 80 87 84 64 52 54 65 62 46 43 39 38 45 46 47 45 43 42
99 99 98 94 92 95 92 91 78 47 17 39 48 56 46 41 47 50 49 64 73 80 78 79 97 97 71 86 73 81 64 56 60 65 48 54 47 52 57 60 56 56 59 57
98 97 99 99 95 90 87 57 30 18 15 39 43 44 48 57 52 52 61 68 88 88 80 98 90 84 75 75 78 89 55 61 70 77 62 69 72 69 73 70 78 71 74 66
98 99 95 86 59 36 27 21 21 20 24 26 77 52 43 49 52 46 48 61 66 73 78 74 70 64 60 95 92 67 78 79 86 83 78 86 80 75 74 75 81 80 83 79
99 95 57 41 26 23 26 36 30 29 32 50 71 69 54 54 55 66 66 61 65 68 72 77 71 67 74 98 98 93 78 75 70 64 83 77 74 86 77 76 86 86 87 86
92 68 43 37 50 47 50 54 55 58 63 80 96 86 55 59 53 60 72 78 77 87 82 94 96 84 86 97 93 87 83 83 76 79 85 94 96 94 86 81 87 92 91 95
85 93 76 57 43 52 75 82 83 78 71 80 85 93 81 64 68 73 78 85 99 93 98 94 86 94 96 94 98 93 88 94 99 100 100 91 94 99 97 96 97 100 100 100
74 51 32 65 80 79 79 75 66 81 82 82 80 83 88 77 82 76 88 90 98 98 88 92 98 93 96 89 94 91 88 90 96 100 96 96 94 100 99 98 100 100 100 100
37 28 74 94 85 72 73 76 72 90 93 80 72 78 89 85 88 94 88 97 100 100 91 96 96 95 91 90 87 85 87 88 90 96 97 100 99 97 97 100 100 100 100 100
24 30 68 68 73 71 75 94 90 87 85 91 95 87 77 77 81 99 89 98 96 100 84 97 95 95 93 93 89 86 88 88 87 93 100 98 100 98 98 98 100 99 100 100
30 27 48 65 87 90 78 96 95 97 90 94 83 69 76 80 83 100 96 96 98 80 98 96 98 96 95 90 88 84 87 90 89 93 97 96 96 93 97 95 95 97 97 97
20 26 80 77 89 86 88 85 93 99 92 81 75 84 87 95 87 88 96 91 95 98 96 97 97 96 94 93 91 90 91 92 94 96 96 95 95 95 96 95 96 96 96 96
28 32 72 92 90 98 98 98 92 89 88 84 90 87 96 94 96 97 95 95 96 96 96 96 95 96 96 89 92 95 95 96 95 98 97 97 94 95 95 95 96 96 96 96
42 65 90 95 90 97 96 97 100 90 87 89 87 93 99 99 98 97 100 96 96 97 97 98 94 93 93 95 96 97 97 96 96 95 97 97 94 95 96 95 95 96 96 96
59 92 83 83 79 92 95 85 87 82 75 96 98 100 94 89 97 99 97 98 97 96 95 98 97 98 97 96 96 94 93 95 92 91 96 96 96 95 91 94 96 96 96 97

GFSNW_850_rhum_222.txt.gz
RH
79 78 82 85 87 74 17 6 15 15 23 41 72 69 60 56 57 53 56 56 58 64 63 64 55 51 60 59 54 58 57 74 84 64 50 51 62 64 72 83 85 90 94 80
76 77 81 86 89 90 20 7 17 27 26 41 67 58 56 59 53 56 59 61 61 58 63 66 59 59 58 57 58 61 55 64 84 54 52 53 63 56 61 71 72 93 94 70
76 75 81 88 97 97 23 12 37 27 39 56 57 56 53 56 57 59 60 64 62 64 69 63 68 65 64 56 61 65 60 76 69 69 48 68 83 68 70 76 89 79 77 72
82 82 86 93 94 98 40 14 38 53 36 43 64 58 61 61 55 59 60 70 68 69 77 74 73 72 66 55 65 66 72 88 82 78 77 78 75 76 80 89 82 94 69 75
91 91 92 93 97 98 70 9 26 52 46 59 56 56 51 63 62 64 64 70 75 69 78 73 78 69 67 67 70 74 65 83 80 90 72 71 70 61 59 58 63 76 76 78
96 100 100 99 100 100 74 26 18 19 26 61 58 49 46 61 62 66 72 72 71 72 73 60 55 53 54 51 59 66 63 73 84 82 76 72 60 45 50 54 95 81 93 82
100 100 100 100 100 100 100 62 16 21 18 51 56 48 53 74 66 61 65 57 57 51 47 48 49 57 64 64 66 59 68 87 85 96 82 70 36 56 54 92 92 96 85 75
100 100 100 100 100 100 100 95 31 13 24 36 47 47 60 61 61 56 56 54 52 50 52 60 59 49 50 61 64 70 66 68 79 92 95 66 65 78 76 76 94 88 94 85
100 100 100 100 100 100 100 95 31 21 22 46 40 50 52 60 65 60 55 55 55 55 58 64 64 52 52 52 73 70 70 77 75 96 96 86 79 67 58 69 95 76 79 78
100 100 100 100 100 100 100 90 59 52 51 59 57 65 75 55 62 64 65 59 56 55 61 57 64 67 70 73 82 92 89 91 96 93 85 82 61 58 43 87 92 70 68 70
100 100 100 100 100 100 100 94 88 86 86 95 83 85 85 75 68 75 63 56 65 67 69 67 72 85 89 86 74 75 89 92 97 92 98 95 43 44 50 64 58 65 65 67
50 98 100 100 100 100 99 99 98 96 98 99 99 98 94 82 70 66 64 60 66 61 85 93 85 86 91 80 70 54 68 63 81 89 79 49 51 50 52 70 72 74 76 74
35 62 100 100 100 100 100 99 98 99 98 98 97 95 89 81 76 81 70 78 66 68 66 75 82 82 76 84 81 69 55 59 70 57 42 56 54 59 62 66 78 71 81 83
34 92 100 100 100 100 99 96 97 99 97 87 58 58 48 39 39 51 81 76 72 74 75 76 87 82 70 84 69 74 65 68 73 74 61 65 58 60 68 70 74 84 79 79
55 99 100 100 100 100 100 100 99 98 64 66 57 63 55 42 43 40 62 82 71 78 80 90 92 85 81 84 82 93 75 86 94 89 76 90 81 71 68 82 82 77 92 93
100 100 100 100 99 99 94 98 98 98 36 30 80 60 59 54 52 54 62 67 74 75 78 82 78 78 73 88 84 90 88 85 84 84 77 88 74 70 79 82 77 80 96 94
100 100 100 100 100 98 82 59 48 70 32 20 59 68 66 64 63 64 72 77 68 70 71 78 74 75 79 93 97 93 84 82 77 80 86 78 76 92 86 90 87 91 90 91
100 100 100 100 99 89 49 50 55 42 24 30 88 80 65 62 65 81 73 71 69 70 75 92 90 82 90 99 94 86 86 82 75 78 83 88 84 80 88 93 94 95 92 90
99 99 99 97 93 76 56 51 51 40 39 52 67 84 88 71 76 81 87 88 99 96 97 95 91 94 96 93 93 90 94 95 96 88 82 88 89 86 91 96 93 99 92 92
100 98 94 92 74 54 54 49 46 46 54 60 78 75 88 78 80 86 89 97 96 99 88 95 98 93 99 93 89 89 92 92 94 94 92 95 89 90 90 95 94 100 100 96
94 88 95 100 86 52 42 54 59 75 76 74 80 80 92 88 87 94 97 96 96 100 92 96 95 95 93 91 88 90 89 88 91 95 96 96 99 100 97 91 92 97 96 100
66 79 89 77 46 46 62 94 90 89 88 92 91 94 81 85 86 86 98 98 94 100 93 97 96 95 97 91 89 88 88 88 88 91 90 92 94 98 99 97 99 95 97 98
71 52 47 50 64 74 62 77 94 94 86 97 86 85 82 91 84 96 94 95 96 88 96 95 94 96 94 93 91 89 92 90 89 87 89 92 91 92 97 96 97 96 96 96
32 32 76 81 84 84 84 84 92 98 97 83 70 88 84 94 86 99 96 90 93 97 97 95 96 97 94 93 95 95 91 90 90 89 91 92 94 93 95 97 99 96 95 96
26 26 77 92 89 98 96 99 94 90 82 71 76 84 80 94 94 96 92 94 99 94 94 97 98 96 92 91 92 93 92 90 86 92 94 93 94 94 97 96 96 95 95 95
47 73 93 97 89 97 98 88 89 85 73 68 66 91 92 98 98 93 100 97 99 94 95 96 96 91 93 94 94 95 95 81 71 80 80 90 91 94 98 96 96 94 96 94
80 96 91 88 88 96 93 85 80 77 72 96 85 88 86 93 100 100 96 97 95 93 84 87 90 90 93 95 95 94 90 73 73 76 71 70 74 86 91 90 93 96 96 97

GFSNW_850_rhum_225.txt.gz
RH
70 72 74 76 80 82 73 23 15 16 19 34 69 67 60 57 56 52 55 56 59 64 64 65 58 52 58 61 59 57 59 73 83 60 51 53 62 64 70 84 84 90 90 75
69 71 75 78 80 89 85 24 13 17 20 39 58 55 56 60 53 56 58 61 62 60 64 65 61 58 57 58 61 64 57 67 83 50 53 54 61 58 65 73 74 90 86 64
67 71 76 81 91 93 92 22 36 21 27 52 50 48 48 53 57 60 62 63 64 66 68 64 68 64 63 57 62 70 65 79 67 56 44 62 76 70 70 75 91 76 74 61
69 79 83 86 91 94 97 23 29 38 35 36 60 53 57 55 48 59 60 66 70 67 74 72 74 71 67 57 67 69 76 91 84 79 78 78 79 77 76 86 77 88 73 79
84 87 92 98 99 98 100 62 24 42 36 54 55 52 47 54 54 60 62 72 71 69 77 68 70 70 69 67 65 69 58 74 73 76 57 66 69 62 66 63 66 84 80 76
75 81 90 100 100 100 99 75 32 34 34 58 48 39 36 53 57 59 67 69 77 79 75 64 59 60 63 54 58 62 59 67 80 75 72 72 60 54 48 71 94 90 95 78
96 99 99 100 100 100 100 98 79 29 34 50 52 40 43 60 67 60 66 66 60 52 48 47 51 58 63 65 66 58 68 84 85 92 77 66 42 71 70 87 90 94 89 79
100 100 100 100 100 100 100 100 98 49 33 31 36 41 58 62 70 64 62 60 58 52 51 56 52 50 56 68 69 71 66 72 72 89 89 61 77 64 71 83 94 69 67 71
100 100 99 100 100 100 100 100 100 77 41 48 40 57 66 81 68 58 56 56 55 54 54 57 56 45 48 56 83 73 71 73 70 94 91 75 76 54 53 70 93 67 78 73
94 97 100 98 100 100 100 99 100 97 85 90 73 91 91 78 74 66 63 60 58 55 60 54 57 65 65 69 74 91 90 91 94 91 92 75 50 46 53 92 80 66 71 70
94 100 100 100 100 100 100 99 100 100 96 99 96 90 94 99 91 80 70 61 63 66 73 70 64 73 80 88 73 85 85 92 94 91 96 94 49 43 48 57 69 74 77 76
34 49 71 98 99 100 100 100 99 98 99 99 99 99 100 90 81 82 86 61 80 77 80 87 82 83 93 79 64 54 76 76 82 81 73 51 56 58 60 65 70 71 72 73
41 40 41 39 89 100 100 100 100 100 100 99 99 99 99 98 94 92 85 86 67 69 72 77 78 78 70 79 78 66 56 62 68 54 47 66 63 66 68 67 74 71 76 79
42 39 51 64 100 99 97 100 99 100 94 96 92 98 94 89 87 91 98 85 79 86 80 74 83 72 69 76 68 70 65 69 74 74 66 61 65 65 66 66 74 81 78 82
45 48 72 100 100 97 100 100 100 100 90 84 64 64 59 49 41 42 69 86 82 80 79 86 88 81 78 85 82 91 78 83 86 80 85 92 80 68 70 80 84 80 87 92
74 100 100 99 96 100 100 99 100 100 83 86 92 69 68 60 55 56 75 82 76 73 70 79 78 78 76 88 77 90 90 86 84 82 80 83 73 73 80 81 79 82 93 87
100 100 99 100 100 100 87 77 77 93 54 21 69 76 72 69 66 74 85 82 78 72 75 77 75 75 80 91 93 94 86 84 84 85 84 75 82 86 79 83 84 84 82 82
100 100 100 100 100 98 69 58 98 90 42 34 86 81 71 70 76 80 69 73 69 69 76 84 83 84 93 99 94 89 86 84 83 84 87 88 81 78 81 87 92 94 88 88
100 100 98 99 90 69 66 73 74 38 47 40 60 83 88 71 82 87 90 83 96 95 97 95 88 92 96 89 91 89 89 90 91 85 83 84 85 86 84 90 90 100 96 97
99 100 97 96 96 67 50 47 40 37 41 54 76 72 92 79 83 93 92 98 98 100 89 96 98 92 100 96 90 89 88 87 90 89 85 88 87 92 88 93 94 98 100 100
98 96 97 96 77 49 44 44 48 67 67 70 82 80 96 89 85 95 94 97 96 99 95 93 95 96 98 96 91 90 90 91 93 95 97 98 100 100 99 92 94 95 97 100
89 78 81 70 79 60 58 89 88 90 85 93 89 94 85 89 86 85 98 96 94 100 94 97 96 94 96 94 92 91 90 89 88 91 92 94 97 98 98 99 96 95 94 96
88 90 90 63 72 72 58 65 92 92 85 98 91 86 87 86 85 95 93 96 97 88 97 94 95 97 95 93 91 90 91 90 90 91 92 93 94 97 99 95 92 92 91 97
72 55 88 87 86 77 81 82 88 98 99 91 71 86 86 89 87 97 92 94 94 97 97 94 96 96 95 94 93 89 88 90 83 75 78 89 93 94 99 98 94 94 94 96
58 44 89 89 95 97 99 99 96 95 83 67 68 80 81 91 96 96 92 95 98 94 95 97 96 96 95 93 92 91 94 91 70 69 69 71 80 91 96 95 94 96 92 93
49 78 95 98 88 97 97 90 88 81 70 62 62 87 91 99 96 90 94 93 98 94 95 97 97 92 92 95 95 94 95 84 72 76 74 73 73 73 84 94 96 96 90 95
84 97 96 95 86 95 91 80 78 73 68 94 77 80 81 94 98 97 96 97 94 94 88 85 82 81 88 96 96 93 93 81 77 79 78 75 75 75 68 66 83 95 94 96